sat.trackr.live / text

‹ back to catalog

FLOCK 4Q-9

NORAD 58322 · 2023-174BU

PAYLOAD ACTIVE UNKNOWN

§ Identity

Operator
Country
US
Launch date
2023-11-11
Launch site
AFWTR
Launch vehicle
Mass (kg)
RCS (m²)

Purposes: earth_obs

External: N2YO · Heavens-Above · Gunter

§ Orbital elements

Epoch: 2026-05-25T05:28:37.015680Z

Period
92.99 min
Inclination
97.3864°
Eccentricity
0.0006413
Mean motion
15.48553346 rev/d
Perigee alt
416.6 km
Apogee alt
425.3 km
Semi-major
6,799.1 km
B*
5.2567e-4
RAAN
233.2051°
Arg perigee
204.8884°
Mean anomaly
155.2058°
Rev number
14,203

§ Raw data

FLOCK 4Q-91 58322U 23174BU  26145.22820620  .00027991  00000+0  52567-3 0  99922 58322  97.3864 233.2051 0006413 204.8884 155.2058 15.48553346142033

JSON: /api/v1/satellites/58322 · /tle

For live sub-satellite position, see the globe view (requires WebGL).

§ Visibility from observer

Set your observer location to see the next 7 days of passes ≥ 10°. The values pass through the URL so the page stays shareable.

No JS? Fill the form by hand. The geolocation button needs JavaScript.